When you browse on this site, cookies collect data to enhance your experience and personalize the content and advertising you see.
Visit our Privacy Policy to learn more. By continuing to use the site, you agree to this use of cookies and data.
  • In Czech Republic
  • List of Countries
  • For 7 days
  • Water Temperature
  • Weather Map
  • Weather Widgets
  • user-avatar
    Login

    Hourly Weather Hannover

    Today, 26 January, Sunday

    Time Temperature Precipitation Wind Pressure Humidity
    00:00 0°C° 0 mm 1 mps 759 mmHg 67%
    01:00 0°C° 0 mm 1 mps 759 mmHg 66%
    02:00 -2°C° 0 mm 2 mps 759 mmHg 67%
    03:00 -1°C° 0 mm 2 mps 759 mmHg 67%
    04:00 -1°C° 0 mm 2 mps 758 mmHg 68%
    05:00 -1°C° 0 mm 2 mps 758 mmHg 70%
    06:00 +1°C° 0 mm 1 mps 758 mmHg 73%
    07:00 +1°C° 0 mm 1 mps 758 mmHg 75%
    08:00 +1°C° 0 mm 2 mps 758 mmHg 75%
    09:00 +1°C° 0 mm 2 mps 758 mmHg 76%
    10:00 +2°C° 0 mm 2 mps 758 mmHg 76%
    11:00 +3°C° 0 mm 2 mps 758 mmHg 74%
    12:00 +4°C° 0 mm 2 mps 757 mmHg 72%
    13:00 +5°C° 0 mm 2 mps 757 mmHg 70%
    14:00 +4°C° 0 mm 2 mps 756 mmHg 74%
    15:00 +4°C° 0 mm 2 mps 756 mmHg 78%
    16:00 +4°C° 0 mm 2 mps 756 mmHg 81%
    17:00 +3°C° 0 mm 2 mps 756 mmHg 83%
    18:00 +3°C° 0 mm 2 mps 755 mmHg 85%
    19:00 +1°C° 0 mm 3 mps 755 mmHg 87%
    20:00 +1°C° 0 mm 3 mps 755 mmHg 88%
    21:00 +1°C° 0 mm 3 mps 755 mmHg 88%
    22:00 +1°C° 0 mm 3 mps 755 mmHg 89%
    23:00 +1°C° 0 mm 3 mps 755 mmHg 89%

    Tomorrow, 27 January, Monday

    Time Temperature Precipitation Wind Pressure Humidity
    00:00 +1°C° 0 mm 3 mps 755 mmHg 90%
    01:00 +1°C° 0 mm 3 mps 754 mmHg 90%
    02:00 +1°C° 0 mm 3 mps 754 mmHg 90%
    03:00 0°C° 0 mm 4 mps 754 mmHg 90%
    04:00 0°C° 0 mm 4 mps 753 mmHg 89%
    05:00 +1°C° 0 mm 4 mps 753 mmHg 89%
    06:00 +1°C° 0 mm 5 mps 752 mmHg 89%
    07:00 +1°C° 0 mm 5 mps 752 mmHg 89%
    08:00 +2°C° 0.2 mm 6 mps 751 mmHg 89%
    09:00 +3°C° 0.2 mm 6 mps 751 mmHg 88%
    10:00 +4°C° 0.2 mm 6 mps 751 mmHg 87%
    11:00 +4°C° 0 mm 6 mps 751 mmHg 85%
    12:00 +5°C° 0 mm 6 mps 750 mmHg 83%
    13:00 +5°C° 0 mm 6 mps 750 mmHg 81%
    14:00 +6°C° 0 mm 5 mps 749 mmHg 82%
    15:00 +6°C° 0 mm 5 mps 749 mmHg 83%
    16:00 +6°C° 0 mm 5 mps 748 mmHg 84%
    17:00 +6°C° 0.3 mm 5 mps 748 mmHg 85%
    18:00 +6°C° 0.3 mm 5 mps 747 mmHg 86%
    19:00 +5°C° 0.3 mm 6 mps 747 mmHg 86%
    20:00 +6°C° 0.2 mm 5 mps 746 mmHg 87%
    21:00 +5°C° 0.2 mm 5 mps 746 mmHg 88%
    22:00 +5°C° 0.2 mm 4 mps 746 mmHg 89%
    23:00 +5°C° 0 mm 4 mps 745 mmHg 89%

    Day after tomorrow, 28 January, Tuesday

    Time Temperature Precipitation Wind Pressure Humidity
    00:00 +4°C° 0 mm 3 mps 744 mmHg 90%
    01:00 +4°C° 0 mm 3 mps 743 mmHg 90%
    02:00 +4°C° 0 mm 3 mps 742 mmHg 90%
    03:00 +4°C° 0 mm 4 mps 741 mmHg 89%
    04:00 +4°C° 0 mm 4 mps 740 mmHg 89%
    05:00 +5°C° 0.8 mm 5 mps 739 mmHg 89%
    06:00 +4°C° 0.8 mm 6 mps 738 mmHg 89%
    07:00 +4°C° 0.8 mm 7 mps 737 mmHg 89%
    08:00 +4°C° 0.4 mm 7 mps 737 mmHg 85%
    09:00 +4°C° 0.4 mm 7 mps 737 mmHg 81%
    10:00 +4°C° 0.4 mm 7 mps 737 mmHg 77%
    11:00 +4°C° 0 mm 7 mps 737 mmHg 76%
    12:00 +5°C° 0 mm 7 mps 737 mmHg 74%
    13:00 +5°C° 0 mm 6 mps 737 mmHg 73%
    14:00 +4°C° 0.3 mm 7 mps 738 mmHg 76%
    15:00 +2°C° 0.3 mm 8 mps 738 mmHg 79%
    16:00 +1°C° 0.3 mm 9 mps 739 mmHg 83%
    17:00 +1°C° 0.1 mm 9 mps 739 mmHg 76%
    18:00 +1°C° 0.1 mm 8 mps 740 mmHg 69%
    19:00 0°C° 0.1 mm 8 mps 741 mmHg 62%
    20:00 0°C° 0.1 mm 7 mps 741 mmHg 71%
    21:00 0°C° 0.1 mm 7 mps 741 mmHg 79%
    22:00 -1°C° 0.1 mm 7 mps 741 mmHg 87%
    23:00 -1°C° 0 mm 7 mps 741 mmHg 85%

    29 January, Wednesday

    Time Temperature Precipitation Wind Pressure Humidity
    00:00 +1°C° 0 mm 6 mps 741 mmHg 83%
    01:00 +1°C° 0 mm 6 mps 741 mmHg 81%
    02:00 +1°C° 0 mm 6 mps 741 mmHg 82%
    03:00 -1°C° 0 mm 6 mps 741 mmHg 83%
    04:00 -1°C° 0 mm 6 mps 741 mmHg 85%
    05:00 -1°C° 0 mm 7 mps 741 mmHg 84%
    06:00 -1°C° 0 mm 7 mps 742 mmHg 83%
    07:00 -1°C° 0 mm 7 mps 742 mmHg 81%
    08:00 0°C° 0.5 mm 8 mps 742 mmHg 85%
    09:00 0°C° 0.5 mm 8 mps 743 mmHg 88%
    10:00 0°C° 0.5 mm 8 mps 743 mmHg 92%
    11:00 0°C° 0.2 mm 8 mps 744 mmHg 88%
    12:00 +1°C° 0.2 mm 8 mps 744 mmHg 85%
    13:00 +1°C° 0.2 mm 8 mps 745 mmHg 81%
    14:00 +1°C° 0.6 mm 8 mps 745 mmHg 82%
    15:00 +1°C° 0.6 mm 8 mps 746 mmHg 83%
    16:00 +1°C° 0.6 mm 8 mps 747 mmHg 84%
    17:00 +1°C° 0.2 mm 8 mps 747 mmHg 82%
    18:00 +2°C° 0.2 mm 7 mps 748 mmHg 79%
    19:00 0°C° 0.2 mm 7 mps 749 mmHg 77%
    20:00 0°C° 0.2 mm 7 mps 749 mmHg 81%
    21:00 -1°C° 0.2 mm 7 mps 750 mmHg 85%
    22:00 -1°C° 0.2 mm 7 mps 750 mmHg 89%
    23:00 -1°C° 0.5 mm 7 mps 750 mmHg 87%

    30 January, Thursday

    Time Temperature Precipitation Wind Pressure Humidity
    00:00 0°C° 0.5 mm 7 mps 751 mmHg 84%
    01:00 +2°C° 0.5 mm 7 mps 751 mmHg 82%
    02:00 0°C° 0 mm 8 mps 751 mmHg 82%
    03:00 0°C° 0 mm 8 mps 752 mmHg 82%
    04:00 0°C° 0 mm 8 mps 752 mmHg 82%
    05:00 0°C° 0 mm 8 mps 752 mmHg 83%
    06:00 0°C° 0 mm 7 mps 753 mmHg 84%
    07:00 0°C° 0 mm 7 mps 753 mmHg 85%
    08:00 0°C° 0 mm 7 mps 754 mmHg 85%
    09:00 +1°C° 0 mm 6 mps 754 mmHg 84%
    10:00 +1°C° 0 mm 6 mps 755 mmHg 84%
    11:00 +2°C° 0 mm 6 mps 755 mmHg 82%
    12:00 +2°C° 0 mm 6 mps 755 mmHg 80%
    13:00 +3°C° 0 mm 6 mps 756 mmHg 79%
    14:00 +3°C° 0 mm 5 mps 756 mmHg 79%
    15:00 +4°C° 0 mm 4 mps 756 mmHg 79%
    16:00 +4°C° 0 mm 3 mps 756 mmHg 79%
    17:00 +3°C° 0 mm 3 mps 756 mmHg 81%
    18:00 +2°C° 0 mm 3 mps 756 mmHg 83%
    19:00 +3°C° 0 mm 2 mps 756 mmHg 85%
    20:00 +3°C° 0 mm 2 mps 756 mmHg 85%
    21:00 +2°C° 0 mm 2 mps 756 mmHg 86%
    22:00 +2°C° 0 mm 2 mps 756 mmHg 86%
    23:00 +2°C° 0 mm 2 mps 755 mmHg 86%

    31 January, Friday

    Time Temperature Precipitation Wind Pressure Humidity
    00:00 +2°C° 0 mm 2 mps 755 mmHg 85%
    01:00 +2°C° 0 mm 2 mps 755 mmHg 85%
    02:00 +1°C° 0 mm 2 mps 755 mmHg 86%
    03:00 0°C° 0 mm 3 mps 754 mmHg 86%
    04:00 0°C° 0 mm 3 mps 754 mmHg 86%
    05:00 0°C° 0 mm 3 mps 754 mmHg 85%
    06:00 0°C° 0 mm 3 mps 754 mmHg 85%
    07:00 0°C° 0 mm 3 mps 754 mmHg 84%
    08:00 0°C° 0 mm 3 mps 754 mmHg 80%
    09:00 +1°C° 0 mm 3 mps 754 mmHg 77%
    10:00 +2°C° 0 mm 3 mps 754 mmHg 73%
    11:00 +3°C° 0 mm 3 mps 753 mmHg 74%
    12:00 +3°C° 0 mm 3 mps 753 mmHg 75%
    13:00 +4°C° 0 mm 3 mps 753 mmHg 75%
    14:00 +4°C° 0 mm 3 mps 753 mmHg 78%
    15:00 +5°C° 0 mm 3 mps 753 mmHg 81%
    16:00 +5°C° 0 mm 3 mps 753 mmHg 84%
    17:00 +5°C° 0 mm 3 mps 753 mmHg 86%
    18:00 +5°C° 0 mm 4 mps 753 mmHg 88%
    19:00 +5°C° 0 mm 4 mps 753 mmHg 90%
    20:00 +5°C° 0 mm 4 mps 753 mmHg 90%
    21:00 +6°C° 0 mm 4 mps 753 mmHg 90%
    22:00 +6°C° 0 mm 4 mps 752 mmHg 90%
    23:00 +6°C° 0.1 mm 4 mps 752 mmHg 91%
    Show more